Overview Statistics Trail Chart Weather Telemetry Raw packets
 

This is the latest recevied weather packets stored in our database for station/object DL4MGC-10. If no packets are shown the sender has not sent any weather packets the latest 10 day(s).

<< 23 24 25 26 27 28 29 >>
Time Temp. Humidity Pressure Rain* Wind** Luminosity Snow
1788152205 17.78° C 100% 1016.5 hPa - - - -
1788151305 17.78° C 100% 1016.3 hPa - - - -
1788150405 17.78° C 100% 1016.3 hPa - - - -
1788149504 17.78° C 100% 1016.2 hPa - - - -
1788148604 17.78° C 100% 1016 hPa - - - -
1788147704 17.78° C 100% 1015.8 hPa - - - -
1788146804 17.78° C 100% 1015.8 hPa - - - -
1788145904 17.78° C 100% 1015.7 hPa - - - -
1788145004 17.78° C 100% 1016.1 hPa - - - -
1788144104 18.33° C 100% 1016.3 hPa - - - -
1788143204 18.89° C 100% 1016.4 hPa - - - -
1788142304 19.44° C 99% 1016.7 hPa - - - -
1788141403 20° C 91% 1015.8 hPa - - - -
1788140503 19.44° C 93% 1015.2 hPa - - - -
1788139603 18.89° C 96% 1014 hPa - - - -
1788138703 18.89° C 96% 1014.2 hPa - - - -
1788137803 18.89° C 95% 1014.3 hPa - - - -
1788136903 18.89° C 95% 1014.3 hPa - - - -
1788136003 18.89° C 95% 1014.5 hPa - - - -
1788135103 18.33° C 98% 1014.6 hPa - - - -
1788134203 18.33° C 99% 1014.7 hPa - - - -
1788133303 18.89° C 97% 1014.7 hPa - - - -
1788132402 18.89° C 96% 1014.8 hPa - - - -
1788131502 18.89° C 94% 1015 hPa - - - -
1788130602 18.89° C 95% 1015.2 hPa - - - -

* Rain since midnight (hover to see other rain measurements)
** Current wind speed in m/s (hover to see current wind gust speed)